CW0198 Weather Reports


Display with metric or nautical units.
time (UTC)temp
F
wind
direction
speed
MPH
gust
MPH
rain 1hr
in
rain 24hr
in
rain mn
in
humidity
%
barometer
mb
20260903131524 82 238 1.0 6.0 0.00 0.00 0.00 87 1016.6
20260903130042 81 278 1.0 5.0 0.00 0.00 0.00 89 1016.6
20260903124520 80 206 1.0 4.0 0.00 0.00 0.00 92 1016.6
20260903123038 78 283 0.0 3.0 0.00 0.00 0.00 94 1016.7
20260903121554 77 216 1.0 3.0 0.00 0.00 0.00 95 1016.8
20260903120020 76 216 0.0 2.0 0.00 0.00 0.00 96 1016.8
20260903114548 75 226 0.0 0.0 0.00 0.00 0.00 97 1016.7
20260903113006 75 249 0.0 1.0 0.00 0.00 0.00 97 1016.5
20260903111538 75 226 0.0 0.0 0.00 0.00 0.00 98 1016.2
20260903110056 74 210 0.0 0.0 0.00 0.00 0.00 98 1016.3
20260903104518 74 224 0.0 0.0 0.00 0.00 0.00 98 1016.1
20260903103047 74 200 0.0 0.0 0.00 0.00 0.00 98 1016.1
20260903101503 75 202 0.0 0.0 0.00 0.00 0.00 98 1016.0
20260903100024 75 211 0.0 0.0 0.00 0.00 0.00 98 1015.8
20260903094550 75 213 0.0 1.0 0.00 0.00 0.00 98 1015.8
20260903093020 75 212 0.0 0.0 0.00 0.00 0.00 98 1015.8
20260903091540 74 212 0.0 0.0 0.00 0.00 0.00 98 1015.7
20260903090008 75 212 0.0 0.0 0.00 0.00 0.00 98 1015.6
20260903084527 75 212 0.0 0.0 0.00 0.00 0.00 97 1015.6
20260903083054 75 212 0.0 0.0 0.00 0.00 0.00 98 1015.4
20260903081524 75 212 0.0 0.0 0.00 0.00 0.00 97 1015.5
20260903080037 75 203 0.0 0.0 0.00 0.00 0.00 97 1015.3
20260903074557 75 172 0.0 0.0 0.00 0.00 0.00 97 1015.4
20260903073020 75 162 0.0 0.0 0.00 0.00 0.00 97 1015.2
20260903071548 75 162 0.0 0.0 0.00 0.00 0.00 96 1015.3
20260903070013 76 162 0.0 0.0 0.00 0.00 0.00 96 1015.2
20260903064539 76 209 0.0 0.0 0.00 0.00 0.00 95 1015.3
20260903063124 76 217 0.0 0.0 0.00 0.00 0.00 95 1015.2
20260903061530 76 176 0.0 0.0 0.00 0.00 0.00 95 1015.4
20260903060046 76 176 0.0 0.0 0.00 0.00 0.00 94 1015.6
20260903054517 76 176 0.0 0.0 0.00 0.00 0.00 94 1015.7
20260903053037 75 177 0.0 0.0 0.00 0.00 0.00 93 1015.7
20260903051559 75 148 0.0 0.0 0.00 0.00 0.00 93 1015.7
20260903050029 75 148 0.0 0.0 0.00 0.00 0.00 93 1015.8
20260903044551 75 148 0.0 0.0 0.00 0.00 0.00 94 1015.8
20260903043017 75 148 0.0 0.0 0.00 0.00 0.00 94 1016.0
20260903041537 75 148 0.0 0.0 0.00 0.00 0.00 94 1016.1
20260903040004 76 148 0.0 0.0 0.00 0.00 0.00 93 1016.0
20260903034533 76 148 0.0 0.0 0.00 0.00 0.00 93 1015.8
20260903033007 77 148 0.0 0.0 0.00 0.00 0.00 92 1016.1
20260903031531 76 148 0.0 0.0 0.00 0.00 0.00 92 1016.0
20260903030059 77 148 0.0 0.0 0.00 0.00 0.00 91 1016.1
20260903030001 77 148 0.0 0.0 0.00 0.00 0.00 91 1016.2
20260903024525 78 148 0.0 0.0 0.00 0.00 0.00 89 1016.2
20260903023045 78 148 0.0 0.0 0.00 0.00 0.00 88 1016.3
20260903021515 79 150 0.0 0.0 0.00 0.00 0.00 87 1016.3
20260903020029 80 18 0.0 0.0 0.00 0.00 0.00 83 1016.2
20260903014556 81 120 0.0 0.0 0.00 0.00 0.00 82 1016.4
20260903013014 82 219 2.0 6.0 0.00 0.00 0.00 80 1015.4
20260903011556 83 278 0.0 0.0 0.00 0.00 0.00 79 1015.8
20260903010004 83 321 2.0 9.0 0.00 0.00 0.00 78 1017.0
20260903004529 84 140 0.0 0.0 0.00 0.00 0.00 80 1016.5
20260903003046 84 140 0.0 1.0 0.00 0.00 0.00 79 1016.0
20260903001515 85 158 0.0 1.0 0.00 0.00 0.00 82 1015.3
20260903000042 86 150 0.0 0.0 0.00 0.00 0.00 81 1015.3
20260902234556 88 150 0.0 0.0 0.00 0.00 0.00 76 1015.2
20260902233025 90 150 0.0 0.0 0.00 0.00 0.00 75 1015.1
20260902231603 92 150 0.0 0.0 0.00 0.00 0.00 71 1015.3
20260902230026 96 150 0.0 0.0 0.00 0.00 0.00 65 1015.1
20260902224552 98 150 0.0 0.0 0.00 0.00 0.00 60 1015.2
20260902223007 97 150 0.0 0.0 0.00 0.00 0.00 58 1015.1
20260902221526 98 150 0.0 0.0 0.00 0.00 0.00 56 1015.1
20260902220052 97 146 0.0 2.0 0.00 0.00 0.00 54 1015.1
20260902214510 97 289 0.0 2.0 0.00 0.00 0.00 54 1015.2
20260902213039 97 233 0.0 3.0 0.00 0.00 0.00 53 1015.3
20260902211557 98 279 0.0 4.0 0.00 0.00 0.00 54 1015.2
20260902211507 98 296 0.0 4.0 0.00 0.00 0.00 55 1015.2
20260902210019 98 198 0.0 3.0 0.00 0.00 0.00 53 1015.1
20260902204547 98 233 0.0 3.0 0.00 0.00 0.00 54 1015.1
20260902203002 98 203 0.0 5.0 0.00 0.00 0.00 54 1015.4
20260902201533 98 253 0.0 2.0 0.00 0.00 0.00 56 1015.5
20260902200039 98 155 1.0 4.0 0.00 0.00 0.00 53 1015.6
20260902194502 98 157 1.0 4.0 0.00 0.00 0.00 55 1015.7
20260902193020 97 214 0.0 3.0 0.00 0.00 0.00 54 1015.8
20260902191542 97 195 1.0 4.0 0.00 0.00 0.00 56 1015.8
20260902190003 97 199 0.0 2.0 0.00 0.00 0.00 61 1016.1
20260902184523 96 262 0.0 3.0 0.00 0.00 0.00 58 1016.1
20260902183040 96 153 1.0 5.0 0.00 0.00 0.00 61 1016.3
20260902181502 96 199 1.0 5.0 0.00 0.00 0.00 60 1016.4
20260902180018 96 259 0.0 4.0 0.00 0.00 0.00 60 1016.5
20260902174544 96 293 0.0 3.0 0.00 0.00 0.00 60 1016.5
20260902173100 97 241 0.0 2.0 0.00 0.00 0.00 57 1016.6
20260902173011 97 162 0.0 2.0 0.00 0.00 0.00 57 1016.5
20260902171527 96 326 0.0 3.0 0.00 0.00 0.00 61 1016.6
20260902170050 96 43 0.0 2.0 0.00 0.00 0.00 61 1016.7
20260902164509 95 226 1.0 4.0 0.00 0.00 0.00 63 1016.9
20260902163034 95 134 0.0 3.0 0.00 0.00 0.00 66 1017.0
20260902161554 94 186 0.0 2.0 0.00 0.00 0.00 62 1017.0
20260902160018 93 309 0.0 5.0 0.00 0.00 0.00 65 1017.1
20260902154536 93 25 0.0 3.0 0.00 0.00 0.00 66 1017.1
20260902153058 92 314 0.0 2.0 0.00 0.00 0.00 67 1017.2
20260902151516 91 319 0.0 4.0 0.00 0.00 0.00 70 1017.1
20260902150040 90 11 0.0 3.0 0.00 0.00 0.00 72 1017.0
20260902144553 89 338 1.0 5.0 0.00 0.00 0.00 76 1017.0
20260902143022 88 6 0.0 4.0 0.00 0.00 0.00 76 1016.9
20260902141538 87 347 0.0 3.0 0.00 0.00 0.00 76 1016.7
20260902140001 86 337 2.0 6.0 0.00 0.00 0.00 76 1016.9
20260902134536 86 12 0.0 4.0 0.00 0.00 0.00 80 1016.8
20260902133042 84 309 0.0 3.0 0.00 0.00 0.00 84 1016.8